| time (UTC) | temp F | wind direction | speed MPH | gust MPH | rain 1hr in | rain 24hr in | rain mn in | humidity % | barometer mb |
| 20260905161042 | 66 | 345 | 2.0 | 5.0 | 0.00 | 0.00 | 0.00 | 76 | 1014.4 |
| 20260905160540 | 66 | 347 | 0.0 | 3.0 | 0.00 | 0.00 | 0.00 | 76 | 1014.5 |
| 20260905160052 | 65 | 293 | 0.0 | 3.0 | 0.00 | 0.00 | 0.00 | 77 | 1014.4 |
| 20260905155537 | 65 | 293 | 0.0 | 3.0 | 0.00 | 0.00 | 0.00 | 77 | 1014.4 |
| 20260905155035 | 64 | 291 | 0.0 | 7.0 | 0.00 | 0.00 | 0.00 | 77 | 1014.5 |
| 20260905154540 | 64 | 324 | 0.0 | 4.0 | 0.00 | 0.00 | 0.00 | 77 | 1014.4 |
| 20260905154037 | 64 | 286 | 1.0 | 4.0 | 0.00 | 0.00 | 0.00 | 76 | 1014.4 |
| 20260905153532 | 64 | 163 | 0.0 | 0.0 | 0.00 | 0.00 | 0.00 | 77 | 1014.3 |
| 20260905153035 | 63 | 162 | 0.0 | 0.0 | 0.00 | 0.00 | 0.00 | 77 | 1014.3 |
| 20260905152529 | 63 | 162 | 0.0 | 0.0 | 0.00 | 0.00 | 0.00 | 78 | 1014.3 |
| 20260905152028 | 62 | 162 | 0.0 | 0.0 | 0.00 | 0.00 | 0.00 | 78 | 1014.3 |
| 20260905151527 | 61 | 162 | 0.0 | 3.0 | 0.00 | 0.00 | 0.00 | 78 | 1014.3 |
| 20260905151027 | 61 | 162 | 0.0 | 3.0 | 0.00 | 0.00 | 0.00 | 78 | 1014.2 |
| 20260905150526 | 61 | 127 | 0.0 | 0.0 | 0.00 | 0.00 | 0.00 | 79 | 1014.1 |
| 20260905150026 | 61 | 126 | 0.0 | 0.0 | 0.00 | 0.00 | 0.00 | 79 | 1014.1 |
| 20260905145526 | 60 | 126 | 0.0 | 0.0 | 0.00 | 0.00 | 0.00 | 80 | 1014.1 |
| 20260905145025 | 60 | 126 | 0.0 | 0.0 | 0.00 | 0.00 | 0.00 | 80 | 1014.1 |
| 20260905144528 | 59 | 126 | 0.0 | 0.0 | 0.00 | 0.00 | 0.00 | 80 | 1013.9 |
| 20260905144022 | 59 | 116 | 0.0 | 0.0 | 0.00 | 0.00 | 0.00 | 80 | 1013.9 |
| 20260905143521 | 59 | 116 | 0.0 | 0.0 | 0.00 | 0.00 | 0.00 | 80 | 1013.8 |
| 20260905143022 | 58 | 116 | 0.0 | 0.0 | 0.00 | 0.00 | 0.00 | 80 | 1013.9 |
| 20260905142524 | 58 | 116 | 0.0 | 0.0 | 0.00 | 0.00 | 0.00 | 80 | 1013.9 |
| 20260905142021 | 58 | 116 | 0.0 | 0.0 | 0.00 | 0.00 | 0.00 | 80 | 1013.7 |
| 20260905141519 | 58 | 116 | 0.0 | 0.0 | 0.00 | 0.00 | 0.00 | 80 | 1013.6 |
| 20260905141020 | 57 | 116 | 0.0 | 0.0 | 0.00 | 0.00 | 0.00 | 80 | 1013.6 |
| 20260905140519 | 57 | 116 | 0.0 | 0.0 | 0.00 | 0.00 | 0.00 | 80 | 1013.4 |
| 20260905140015 | 57 | 116 | 0.0 | 1.0 | 0.00 | 0.00 | 0.00 | 80 | 1013.4 |
| 20260905135505 | 57 | 116 | 0.0 | 1.0 | 0.00 | 0.00 | 0.00 | 80 | 1013.3 |
| 20260905135004 | 58 | 141 | 0.0 | 0.0 | 0.00 | 0.00 | 0.00 | 80 | 1013.3 |
| 20260905134503 | 58 | 141 | 0.0 | 0.0 | 0.00 | 0.00 | 0.00 | 80 | 1013.3 |
| 20260905134003 | 58 | 141 | 0.0 | 0.0 | 0.00 | 0.00 | 0.00 | 80 | 1013.3 |
| 20260905133502 | 58 | 141 | 0.0 | 0.0 | 0.00 | 0.00 | 0.00 | 80 | 1013.3 |
| 20260905133004 | 58 | 141 | 0.0 | 0.0 | 0.00 | 0.00 | 0.00 | 80 | 1013.2 |
| 20260905132501 | 58 | 141 | 0.0 | 0.0 | 0.00 | 0.00 | 0.00 | 80 | 1013.2 |
| 20260905132001 | 58 | 141 | 0.0 | 1.0 | 0.00 | 0.00 | 0.00 | 80 | 1013.3 |
| 20260905131502 | 58 | 141 | 0.0 | 2.0 | 0.00 | 0.00 | 0.00 | 80 | 1013.3 |
| 20260905131100 | 58 | 141 | 0.0 | 2.0 | 0.00 | 0.00 | 0.00 | 80 | 1013.2 |
| 20260905130600 | 58 | 141 | 0.0 | 0.0 | 0.00 | 0.00 | 0.00 | 80 | 1013.2 |
| 20260905130100 | 58 | 141 | 0.0 | 0.0 | 0.00 | 0.00 | 0.00 | 80 | 1013.3 |
| 20260905125559 | 58 | 141 | 0.0 | 0.0 | 0.00 | 0.00 | 0.00 | 80 | 1013.3 |
| 20260905125059 | 58 | 141 | 0.0 | 0.0 | 0.00 | 0.00 | 0.00 | 80 | 1013.1 |
| 20260905124600 | 58 | 141 | 0.0 | 0.0 | 0.00 | 0.00 | 0.00 | 80 | 1013.2 |
| 20260905124057 | 59 | 141 | 0.0 | 0.0 | 0.00 | 0.00 | 0.00 | 80 | 1013.2 |
| 20260905123557 | 59 | 141 | 0.0 | 0.0 | 0.00 | 0.00 | 0.00 | 80 | 1013.3 |
| 20260905123104 | 59 | 141 | 0.0 | 0.0 | 0.00 | 0.00 | 0.00 | 80 | 1013.3 |
| 20260905122557 | 59 | 141 | 0.0 | 0.0 | 0.00 | 0.00 | 0.00 | 80 | 1013.3 |
| 20260905122158 | 59 | 141 | 0.0 | 0.0 | 0.00 | 0.00 | 0.00 | 80 | 1013.2 |
| 20260905121655 | 59 | 141 | 0.0 | 1.0 | 0.00 | 0.00 | 0.00 | 80 | 1013.2 |
| 20260905121058 | 59 | 141 | 0.0 | 2.0 | 0.00 | 0.00 | 0.00 | 80 | 1013.3 |
| 20260905120553 | 59 | 141 | 0.0 | 2.0 | 0.00 | 0.00 | 0.00 | 80 | 1013.2 |
| 20260905120106 | 59 | 141 | 0.0 | 2.0 | 0.00 | 0.00 | 0.00 | 80 | 1013.2 |
| 20260905115553 | 59 | 141 | 0.0 | 2.0 | 0.00 | 0.00 | 0.00 | 80 | 1013.2 |
| 20260905115054 | 59 | 141 | 0.0 | 2.0 | 0.00 | 0.00 | 0.00 | 80 | 1013.3 |
| 20260905114606 | 59 | 141 | 0.0 | 2.0 | 0.00 | 0.00 | 0.00 | 80 | 1013.2 |
| 20260905114052 | 59 | 141 | 0.0 | 2.0 | 0.00 | 0.00 | 0.00 | 80 | 1013.3 |
| 20260905113552 | 59 | 141 | 0.0 | 1.0 | 0.00 | 0.00 | 0.00 | 80 | 1013.2 |
| 20260905113057 | 59 | 141 | 0.0 | 1.0 | 0.00 | 0.00 | 0.00 | 80 | 1013.2 |
| 20260905112551 | 59 | 141 | 0.0 | 1.0 | 0.00 | 0.00 | 0.00 | 80 | 1013.2 |
| 20260905112051 | 59 | 141 | 0.0 | 0.0 | 0.00 | 0.00 | 0.00 | 80 | 1013.1 |
| 20260905111639 | 60 | 141 | 0.0 | 0.0 | 0.00 | 0.00 | 0.00 | 80 | 1013.2 |
| 20260905111049 | 60 | 141 | 0.0 | 2.0 | 0.00 | 0.00 | 0.00 | 80 | 1013.3 |
| 20260905110548 | 60 | 141 | 0.0 | 3.0 | 0.00 | 0.00 | 0.00 | 80 | 1013.2 |
| 20260905110049 | 60 | 243 | 0.0 | 3.0 | 0.00 | 0.00 | 0.00 | 80 | 1013.3 |
| 20260905105548 | 60 | 250 | 0.0 | 1.0 | 0.00 | 0.00 | 0.00 | 80 | 1013.4 |
| 20260905105047 | 60 | 250 | 0.0 | 1.0 | 0.00 | 0.00 | 0.00 | 80 | 1013.5 |
| 20260905104548 | 60 | 250 | 0.0 | 1.0 | 0.00 | 0.00 | 0.00 | 80 | 1013.5 |
| 20260905104047 | 60 | 250 | 0.0 | 1.0 | 0.00 | 0.00 | 0.00 | 80 | 1013.5 |
| 20260905103548 | 60 | 250 | 0.0 | 1.0 | 0.00 | 0.00 | 0.00 | 80 | 1013.6 |
| 20260905103047 | 60 | 251 | 0.0 | 0.0 | 0.00 | 0.00 | 0.00 | 80 | 1013.6 |
| 20260905102549 | 60 | 251 | 0.0 | 0.0 | 0.00 | 0.00 | 0.00 | 80 | 1013.7 |
| 20260905102046 | 60 | 251 | 0.0 | 0.0 | 0.00 | 0.00 | 0.00 | 80 | 1013.7 |
| 20260905101546 | 60 | 251 | 0.0 | 0.0 | 0.00 | 0.00 | 0.00 | 79 | 1013.7 |
| 20260905101044 | 60 | 251 | 0.0 | 0.0 | 0.00 | 0.00 | 0.00 | 79 | 1013.7 |
| 20260905100544 | 60 | 251 | 0.0 | 0.0 | 0.00 | 0.00 | 0.00 | 79 | 1013.8 |
| 20260905100043 | 60 | 251 | 0.0 | 0.0 | 0.00 | 0.00 | 0.00 | 79 | 1013.9 |
| 20260905095543 | 60 | 251 | 0.0 | 0.0 | 0.00 | 0.00 | 0.00 | 79 | 1013.9 |
| 20260905095043 | 60 | 251 | 0.0 | 0.0 | 0.00 | 0.00 | 0.00 | 79 | 1013.9 |
| 20260905094543 | 60 | 251 | 0.0 | 0.0 | 0.00 | 0.00 | 0.00 | 79 | 1013.9 |
| 20260905094045 | 60 | 251 | 0.0 | 0.0 | 0.00 | 0.00 | 0.00 | 79 | 1013.9 |
| 20260905093542 | 60 | 251 | 0.0 | 0.0 | 0.00 | 0.00 | 0.00 | 79 | 1013.9 |
| 20260905093047 | 60 | 251 | 0.0 | 0.0 | 0.00 | 0.00 | 0.00 | 79 | 1014.0 |
| 20260905092541 | 61 | 251 | 0.0 | 0.0 | 0.00 | 0.00 | 0.00 | 79 | 1014.0 |
| 20260905092040 | 61 | 251 | 0.0 | 0.0 | 0.00 | 0.00 | 0.00 | 79 | 1014.0 |
| 20260905091540 | 61 | 251 | 0.0 | 0.0 | 0.00 | 0.00 | 0.00 | 79 | 1014.0 |
| 20260905091039 | 61 | 251 | 0.0 | 0.0 | 0.00 | 0.00 | 0.00 | 79 | 1014.0 |
| 20260905090541 | 61 | 251 | 0.0 | 0.0 | 0.00 | 0.00 | 0.00 | 79 | 1014.1 |
| 20260905090038 | 61 | 251 | 0.0 | 0.0 | 0.00 | 0.00 | 0.00 | 79 | 1014.1 |
| 20260905085537 | 61 | 251 | 0.0 | 0.0 | 0.00 | 0.00 | 0.00 | 79 | 1014.2 |
| 20260905085036 | 61 | 251 | 0.0 | 0.0 | 0.00 | 0.00 | 0.00 | 79 | 1014.1 |
| 20260905084538 | 61 | 251 | 0.0 | 0.0 | 0.00 | 0.00 | 0.00 | 79 | 1014.2 |
| 20260905084037 | 61 | 251 | 0.0 | 0.0 | 0.00 | 0.00 | 0.00 | 79 | 1014.2 |
| 20260905083536 | 61 | 251 | 0.0 | 0.0 | 0.00 | 0.00 | 0.00 | 79 | 1014.4 |
| 20260905083036 | 61 | 251 | 0.0 | 0.0 | 0.00 | 0.00 | 0.00 | 79 | 1014.4 |
| 20260905082536 | 61 | 251 | 0.0 | 0.0 | 0.00 | 0.00 | 0.00 | 79 | 1014.3 |
| 20260905082035 | 61 | 251 | 0.0 | 1.0 | 0.00 | 0.00 | 0.00 | 79 | 1014.4 |
| 20260905081535 | 61 | 250 | 0.0 | 0.0 | 0.00 | 0.00 | 0.00 | 79 | 1014.4 |
| 20260905081034 | 61 | 250 | 0.0 | 0.0 | 0.00 | 0.00 | 0.00 | 79 | 1014.3 |
| 20260905080533 | 61 | 250 | 0.0 | 0.0 | 0.00 | 0.00 | 0.00 | 79 | 1014.4 |
| 20260905080035 | 61 | 250 | 0.0 | 0.0 | 0.00 | 0.00 | 0.00 | 79 | 1014.4 |
| 20260905075533 | 62 | 250 | 0.0 | 0.0 | 0.00 | 0.00 | 0.00 | 80 | 1014.5 |
| 20260905075032 | 62 | 250 | 0.0 | 0.0 | 0.00 | 0.00 | 0.00 | 80 | 1014.4 |
| 20260905074531 | 62 | 250 | 0.0 | 0.0 | 0.00 | 0.00 | 0.00 | 80 | 1014.5 |
| 20260905074032 | 62 | 250 | 0.0 | 0.0 | 0.00 | 0.00 | 0.00 | 80 | 1014.4 |
| 20260905073530 | 62 | 250 | 0.0 | 0.0 | 0.00 | 0.00 | 0.00 | 80 | 1014.5 |
| 20260905073037 | 62 | 250 | 0.0 | 0.0 | 0.00 | 0.00 | 0.00 | 80 | 1014.5 |
| 20260905072529 | 62 | 250 | 0.0 | 0.0 | 0.00 | 0.00 | 0.00 | 80 | 1014.3 |
| 20260905072028 | 62 | 250 | 0.0 | 0.0 | 0.00 | 0.00 | 0.00 | 80 | 1014.3 |
| 20260905071529 | 62 | 250 | 0.0 | 0.0 | 0.00 | 0.00 | 0.00 | 80 | 1014.2 |
| 20260905071028 | 62 | 250 | 0.0 | 0.0 | 0.00 | 0.00 | 0.00 | 80 | 1014.3 |
| 20260905070532 | 62 | 250 | 0.0 | 0.0 | 0.00 | 0.00 | 0.00 | 80 | 1014.1 |
| 20260905070044 | 62 | 250 | 0.0 | 0.0 | 0.00 | 0.00 | 0.00 | 80 | 1014.1 |
| 20260905065525 | 62 | 250 | 0.0 | 0.0 | 0.00 | 0.00 | 0.00 | 80 | 1014.1 |
| 20260905065026 | 62 | 250 | 0.0 | 0.0 | 0.00 | 0.00 | 0.00 | 80 | 1014.1 |
| 20260905064538 | 62 | 250 | 0.0 | 1.0 | 0.00 | 0.00 | 0.00 | 80 | 1014.1 |
| 20260905064027 | 62 | 250 | 0.0 | 1.0 | 0.00 | 0.00 | 0.00 | 80 | 1014.1 |
| 20260905063526 | 62 | 250 | 0.0 | 0.0 | 0.00 | 0.00 | 0.00 | 80 | 1014.1 |
| 20260905063025 | 62 | 250 | 0.0 | 0.0 | 0.00 | 0.00 | 0.00 | 80 | 1014.1 |
| 20260905062526 | 62 | 250 | 0.0 | 0.0 | 0.00 | 0.00 | 0.00 | 80 | 1014.2 |
| 20260905062025 | 62 | 250 | 0.0 | 0.0 | 0.00 | 0.00 | 0.00 | 80 | 1014.2 |
| 20260905061525 | 62 | 250 | 0.0 | 0.0 | 0.00 | 0.00 | 0.00 | 80 | 1014.3 |
| 20260905061024 | 62 | 250 | 0.0 | 0.0 | 0.00 | 0.00 | 0.00 | 80 | 1014.3 |
| 20260905060523 | 62 | 250 | 0.0 | 0.0 | 0.00 | 0.00 | 0.00 | 80 | 1014.3 |
| 20260905060024 | 63 | 250 | 0.0 | 0.0 | 0.00 | 0.00 | 0.00 | 80 | 1014.3 |
| 20260905055522 | 63 | 250 | 0.0 | 0.0 | 0.00 | 0.00 | 0.00 | 80 | 1014.4 |
| 20260905055027 | 63 | 250 | 0.0 | 0.0 | 0.00 | 0.00 | 0.00 | 79 | 1014.3 |
| 20260905054533 | 63 | 250 | 0.0 | 0.0 | 0.00 | 0.00 | 0.00 | 80 | 1014.3 |
| 20260905054028 | 63 | 250 | 0.0 | 0.0 | 0.00 | 0.00 | 0.00 | 80 | 1014.3 |
| 20260905053523 | 63 | 250 | 0.0 | 0.0 | 0.00 | 0.00 | 0.00 | 80 | 1014.3 |
| 20260905053022 | 63 | 250 | 0.0 | 0.0 | 0.00 | 0.00 | 0.00 | 80 | 1014.4 |
| 20260905052523 | 63 | 250 | 0.0 | 0.0 | 0.00 | 0.00 | 0.00 | 80 | 1014.4 |
| 20260905052022 | 63 | 250 | 0.0 | 0.0 | 0.00 | 0.00 | 0.00 | 80 | 1014.4 |
| 20260905051533 | 63 | 250 | 0.0 | 0.0 | 0.00 | 0.00 | 0.00 | 80 | 1014.5 |
| 20260905051020 | 63 | 250 | 0.0 | 0.0 | 0.00 | 0.00 | 0.00 | 80 | 1014.4 |
| 20260905050522 | 63 | 250 | 0.0 | 0.0 | 0.00 | 0.00 | 0.00 | 80 | 1014.3 |
| 20260905050014 | 63 | 250 | 0.0 | 0.0 | 0.00 | 0.00 | 0.00 | 80 | 1014.3 |
| 20260905045514 | 63 | 250 | 0.0 | 0.0 | 0.00 | 0.00 | 0.00 | 80 | 1014.2 |
| 20260905045013 | 63 | 250 | 0.0 | 0.0 | 0.00 | 0.00 | 0.00 | 80 | 1014.3 |
| 20260905044512 | 63 | 250 | 0.0 | 0.0 | 0.00 | 0.00 | 0.00 | 80 | 1014.2 |
| 20260905044012 | 63 | 250 | 0.0 | 0.0 | 0.00 | 0.00 | 0.00 | 80 | 1014.2 |
| 20260905043513 | 63 | 250 | 0.0 | 0.0 | 0.00 | 0.00 | 0.00 | 80 | 1014.1 |
| 20260905043012 | 63 | 250 | 0.0 | 0.0 | 0.00 | 0.00 | 0.00 | 80 | 1014.1 |
| 20260905042512 | 63 | 250 | 0.0 | 0.0 | 0.00 | 0.00 | 0.00 | 80 | 1014.1 |
| 20260905042012 | 63 | 250 | 0.0 | 0.0 | 0.00 | 0.00 | 0.00 | 80 | 1014.1 |
| 20260905041512 | 63 | 250 | 0.0 | 0.0 | 0.00 | 0.00 | 0.00 | 80 | 1014.1 |
| 20260905041012 | 63 | 250 | 0.0 | 0.0 | 0.00 | 0.00 | 0.00 | 80 | 1014.1 |
| 20260905040511 | 63 | 250 | 0.0 | 1.0 | 0.00 | 0.00 | 0.00 | 80 | 1014.0 |
| 20260905040049 | 63 | 250 | 0.0 | 3.0 | 0.00 | 0.00 | 0.00 | 80 | 1014.0 |
| 20260905035548 | 63 | 250 | 0.0 | 3.0 | 0.00 | 0.00 | 0.00 | 80 | 1014.1 |
| 20260905035051 | 63 | 251 | 0.0 | 3.0 | 0.00 | 0.00 | 0.00 | 80 | 1013.9 |
| 20260905034549 | 63 | 252 | 0.0 | 3.0 | 0.00 | 0.00 | 0.00 | 81 | 1013.9 |
| 20260905034054 | 63 | 252 | 0.0 | 2.0 | 0.00 | 0.00 | 0.00 | 80 | 1013.9 |
| 20260905033548 | 63 | 251 | 0.0 | 3.0 | 0.00 | 0.00 | 0.00 | 81 | 1014.1 |
| 20260905033048 | 63 | 251 | 0.0 | 4.0 | 0.00 | 0.00 | 0.00 | 81 | 1013.7 |
| 20260905032549 | 63 | 250 | 0.0 | 4.0 | 0.00 | 0.00 | 0.00 | 81 | 1013.6 |
| 20260905032048 | 63 | 251 | 0.0 | 3.0 | 0.00 | 0.00 | 0.00 | 81 | 1013.6 |
| 20260905031548 | 63 | 249 | 0.0 | 3.0 | 0.00 | 0.00 | 0.00 | 81 | 1013.6 |
| 20260905031047 | 63 | 249 | 0.0 | 3.0 | 0.00 | 0.00 | 0.00 | 81 | 1013.4 |
| 20260905030547 | 63 | 252 | 0.0 | 3.0 | 0.00 | 0.00 | 0.00 | 81 | 1013.5 |
| 20260905030041 | 64 | 252 | 0.0 | 2.0 | 0.00 | 0.00 | 0.00 | 81 | 1013.3 |
| 20260905025540 | 64 | 252 | 0.0 | 2.0 | 0.00 | 0.00 | 0.00 | 81 | 1013.3 |
| 20260905025041 | 64 | 291 | 0.0 | 2.0 | 0.00 | 0.00 | 0.00 | 81 | 1013.3 |
| 20260905024548 | 64 | 291 | 0.0 | 3.0 | 0.00 | 0.00 | 0.00 | 81 | 1013.3 |
| 20260905024040 | 64 | 291 | 0.0 | 6.0 | 0.00 | 0.00 | 0.00 | 81 | 1013.3 |
| 20260905023541 | 64 | 291 | 0.0 | 4.0 | 0.00 | 0.00 | 0.00 | 81 | 1013.2 |
| 20260905023040 | 64 | 296 | 0.0 | 4.0 | 0.00 | 0.00 | 0.00 | 81 | 1013.1 |
| 20260905022540 | 64 | 298 | 1.0 | 6.0 | 0.00 | 0.00 | 0.00 | 82 | 1013.3 |
| 20260905022040 | 65 | 298 | 3.0 | 6.0 | 0.00 | 0.00 | 0.00 | 82 | 1013.2 |
| 20260905021543 | 65 | 277 | 1.0 | 7.0 | 0.00 | 0.00 | 0.00 | 82 | 1013.2 |
| 20260905021039 | 65 | 283 | 2.0 | 7.0 | 0.00 | 0.00 | 0.00 | 82 | 1013.2 |
| 20260905020539 | 65 | 293 | 0.0 | 4.0 | 0.00 | 0.00 | 0.00 | 82 | 1013.3 |
| 20260905020030 | 65 | 285 | 2.0 | 9.0 | 0.00 | 0.00 | 0.00 | 82 | 1013.3 |
| 20260905015529 | 65 | 301 | 3.0 | 9.0 | 0.00 | 0.00 | 0.00 | 82 | 1013.3 |
| 20260905015030 | 65 | 291 | 3.0 | 6.0 | 0.00 | 0.00 | 0.00 | 82 | 1013.3 |
| 20260905014535 | 66 | 272 | 3.0 | 7.0 | 0.00 | 0.00 | 0.00 | 82 | 1013.3 |
| 20260905014029 | 66 | 310 | 3.0 | 11.0 | 0.00 | 0.00 | 0.00 | 82 | 1013.3 |
| 20260905013531 | 66 | 277 | 5.0 | 11.0 | 0.00 | 0.00 | 0.00 | 83 | 1013.3 |
| 20260905013028 | 66 | 283 | 2.0 | 9.0 | 0.00 | 0.00 | 0.00 | 83 | 1013.3 |
| 20260905012528 | 66 | 275 | 2.0 | 12.0 | 0.00 | 0.00 | 0.00 | 83 | 1013.3 |
| 20260905012028 | 67 | 294 | 3.0 | 12.0 | 0.00 | 0.00 | 0.00 | 83 | 1013.2 |
| 20260905011528 | 67 | 307 | 5.0 | 10.0 | 0.00 | 0.00 | 0.00 | 83 | 1013.2 |
| 20260905011027 | 67 | 301 | 2.0 | 10.0 | 0.00 | 0.00 | 0.00 | 84 | 1013.2 |
| 20260905010527 | 67 | 276 | 5.0 | 9.0 | 0.00 | 0.00 | 0.00 | 83 | 1013.3 |
| 20260905010030 | 68 | 307 | 1.0 | 10.0 | 0.00 | 0.00 | 0.00 | 84 | 1013.2 |
| 20260905005527 | 68 | 268 | 2.0 | 11.0 | 0.00 | 0.00 | 0.00 | 84 | 1013.3 |
| 20260905005027 | 68 | 308 | 3.0 | 11.0 | 0.00 | 0.00 | 0.00 | 84 | 1013.2 |
| 20260905004530 | 68 | 286 | 3.0 | 11.0 | 0.00 | 0.00 | 0.00 | 84 | 1013.1 |
| 20260905004025 | 69 | 278 | 5.0 | 10.0 | 0.00 | 0.00 | 0.00 | 84 | 1013.2 |
| 20260905003528 | 69 | 314 | 5.0 | 11.0 | 0.00 | 0.00 | 0.00 | 84 | 1013.2 |
| 20260905003033 | 69 | 316 | 5.0 | 11.0 | 0.00 | 0.00 | 0.00 | 85 | 1013.2 |
| 20260905002525 | 69 | 195 | 6.0 | 10.0 | 0.00 | 0.00 | 0.00 | 84 | 1013.2 |
| 20260905002024 | 70 | 296 | 5.0 | 10.0 | 0.00 | 0.00 | 0.00 | 85 | 1013.2 |
| 20260905001524 | 70 | 274 | 4.0 | 12.0 | 0.00 | 0.00 | 0.00 | 85 | 1013.2 |
| 20260905001023 | 70 | 279 | 3.0 | 12.0 | 0.00 | 0.00 | 0.00 | 85 | 1013.3 |
| 20260905000524 | 70 | 310 | 5.0 | 14.0 | 0.00 | 0.00 | 0.00 | 85 | 1013.1 |
| 20260905000023 | 71 | 279 | 7.0 | 14.0 | 0.00 | 0.00 | 0.00 | 85 | 1013.1 |
| 20260904235522 | 71 | 291 | 6.0 | 12.0 | 0.00 | 0.00 | 0.00 | 85 | 1013.1 |
| 20260904235022 | 72 | 294 | 6.0 | 12.0 | 0.00 | 0.00 | 0.00 | 85 | 1013.1 |
| 20260904234522 | 72 | 300 | 6.0 | 12.0 | 0.00 | 0.00 | 0.00 | 85 | 1013.0 |
| 20260904234024 | 73 | 269 | 1.0 | 10.0 | 0.00 | 0.00 | 0.00 | 85 | 1013.0 |
| 20260904233522 | 73 | 308 | 5.0 | 11.0 | 0.00 | 0.00 | 0.00 | 85 | 1013.0 |
| 20260904233024 | 73 | 325 | 4.0 | 11.0 | 0.00 | 0.00 | 0.00 | 85 | 1012.9 |
| 20260904232521 | 73 | 290 | 2.0 | 11.0 | 0.00 | 0.00 | 0.00 | 85 | 1012.9 |
| 20260904232023 | 73 | 335 | 3.0 | 11.0 | 0.00 | 0.00 | 0.00 | 85 | 1012.9 |
| 20260904231521 | 73 | 321 | 4.0 | 11.0 | 0.00 | 0.00 | 0.00 | 85 | 1012.9 |
| 20260904231020 | 73 | 296 | 3.0 | 11.0 | 0.00 | 0.00 | 0.00 | 85 | 1012.9 |
| 20260904230521 | 73 | 281 | 6.0 | 15.0 | 0.00 | 0.00 | 0.00 | 85 | 1013.0 |
| 20260904230020 | 73 | 306 | 4.0 | 14.0 | 0.00 | 0.00 | 0.00 | 85 | 1013.0 |
| 20260904225519 | 73 | 301 | 8.0 | 14.0 | 0.00 | 0.00 | 0.00 | 84 | 1013.1 |
| 20260904225019 | 73 | 315 | 2.0 | 13.0 | 0.00 | 0.00 | 0.00 | 85 | 1013.1 |
| 20260904224523 | 73 | 301 | 8.0 | 14.0 | 0.00 | 0.00 | 0.00 | 85 | 1013.0 |
| 20260904224020 | 74 | 268 | 7.0 | 14.0 | 0.00 | 0.00 | 0.00 | 85 | 1013.1 |
| 20260904223519 | 74 | 272 | 5.0 | 14.0 | 0.00 | 0.00 | 0.00 | 85 | 1013.2 |
| 20260904223019 | 74 | 277 | 8.0 | 15.0 | 0.00 | 0.00 | 0.00 | 85 | 1013.2 |
| 20260904222519 | 74 | 318 | 8.0 | 15.0 | 0.00 | 0.00 | 0.00 | 85 | 1013.2 |
| 20260904222018 | 74 | 271 | 5.0 | 12.0 | 0.00 | 0.00 | 0.00 | 85 | 1013.2 |
| 20260904221538 | 74 | 277 | 3.0 | 16.0 | 0.00 | 0.00 | 0.00 | 85 | 1013.2 |
| 20260904221019 | 74 | 298 | 7.0 | 16.0 | 0.00 | 0.00 | 0.00 | 84 | 1013.3 |
| 20260904220518 | 74 | 336 | 4.0 | 14.0 | 0.00 | 0.00 | 0.00 | 85 | 1013.7 |
| 20260904220006 | 74 | 309 | 7.0 | 16.0 | 0.00 | 0.00 | 0.00 | 85 | 1013.2 |
| 20260904215506 | 74 | 320 | 5.0 | 16.0 | 0.00 | 0.00 | 0.00 | 85 | 1013.2 |
| 20260904215005 | 74 | 307 | 5.0 | 17.0 | 0.00 | 0.00 | 0.00 | 85 | 1013.3 |
| 20260904214505 | 74 | 317 | 5.0 | 14.0 | 0.00 | 0.00 | 0.00 | 85 | 1013.3 |
| 20260904214005 | 75 | 335 | 6.0 | 17.0 | 0.00 | 0.00 | 0.00 | 84 | 1013.2 |
| 20260904213505 | 75 | 307 | 4.0 | 15.0 | 0.00 | 0.00 | 0.00 | 85 | 1013.1 |
| 20260904213014 | 75 | 300 | 6.0 | 14.0 | 0.00 | 0.00 | 0.00 | 85 | 1013.1 |
| 20260904212505 | 75 | 299 | 6.0 | 14.0 | 0.00 | 0.00 | 0.00 | 85 | 1013.1 |
| 20260904212004 | 75 | 264 | 5.0 | 14.0 | 0.00 | 0.00 | 0.00 | 84 | 1013.2 |
| 20260904211505 | 75 | 284 | 8.0 | 15.0 | 0.00 | 0.00 | 0.00 | 85 | 1013.2 |
| 20260904211004 | 75 | 306 | 9.0 | 15.0 | 0.00 | 0.00 | 0.00 | 84 | 1013.2 |
| 20260904210503 | 75 | 296 | 8.0 | 14.0 | 0.00 | 0.00 | 0.00 | 85 | 1013.2 |
| 20260904210003 | 75 | 304 | 8.0 | 13.0 | 0.00 | 0.00 | 0.00 | 85 | 1013.1 |
| 20260904205503 | 75 | 291 | 7.0 | 14.0 | 0.00 | 0.00 | 0.00 | 85 | 1013.2 |
| 20260904205002 | 75 | 284 | 7.0 | 14.0 | 0.00 | 0.00 | 0.00 | 85 | 1013.2 |
| 20260904204505 | 75 | 308 | 7.0 | 16.0 | 0.00 | 0.00 | 0.00 | 85 | 1013.2 |
| 20260904204003 | 75 | 280 | 6.0 | 16.0 | 0.00 | 0.00 | 0.00 | 84 | 1013.2 |
| 20260904203502 | 75 | 273 | 7.0 | 16.0 | 0.00 | 0.00 | 0.00 | 84 | 1013.2 |
| 20260904203002 | 75 | 296 | 7.0 | 14.0 | 0.00 | 0.00 | 0.00 | 85 | 1013.2 |
| 20260904202501 | 75 | 310 | 9.0 | 14.0 | 0.00 | 0.00 | 0.00 | 84 | 1013.3 |
| 20260904202100 | 75 | 278 | 7.0 | 14.0 | 0.00 | 0.00 | 0.00 | 84 | 1013.3 |
| 20260904201601 | 75 | 298 | 8.0 | 14.0 | 0.00 | 0.00 | 0.00 | 84 | 1013.4 |
| 20260904201059 | 76 | 280 | 7.0 | 14.0 | 0.00 | 0.00 | 0.00 | 84 | 1013.3 |
| 20260904200601 | 76 | 290 | 5.0 | 10.0 | 0.00 | 0.00 | 0.00 | 84 | 1013.4 |
| 20260904200122 | 76 | 281 | 5.0 | 13.0 | 0.00 | 0.00 | 0.00 | 84 | 1013.4 |
| 20260904195558 | 76 | 290 | 7.0 | 13.0 | 0.00 | 0.00 | 0.00 | 84 | 1013.4 |
| 20260904195101 | 76 | 288 | 6.0 | 13.0 | 0.00 | 0.00 | 0.00 | 84 | 1013.5 |
| 20260904194634 | 76 | 297 | 6.0 | 13.0 | 0.00 | 0.00 | 0.00 | 84 | 1013.5 |
| 20260904194057 | 76 | 279 | 4.0 | 14.0 | 0.00 | 0.00 | 0.00 | 84 | 1013.5 |
| 20260904193557 | 76 | 296 | 5.0 | 12.0 | 0.00 | 0.00 | 0.00 | 84 | 1013.6 |
| 20260904193056 | 76 | 307 | 6.0 | 11.0 | 0.00 | 0.00 | 0.00 | 83 | 1013.6 |
| 20260904192556 | 76 | 312 | 3.0 | 10.0 | 0.00 | 0.00 | 0.00 | 83 | 1013.6 |
| 20260904192057 | 76 | 290 | 4.0 | 13.0 | 0.00 | 0.00 | 0.00 | 83 | 1013.6 |
| 20260904191558 | 75 | 304 | 3.0 | 13.0 | 0.00 | 0.00 | 0.00 | 84 | 1013.6 |
| 20260904191050 | 75 | 304 | 7.0 | 12.0 | 0.00 | 0.00 | 0.00 | 83 | 1013.7 |
| 20260904190549 | 75 | 280 | 4.0 | 10.0 | 0.00 | 0.00 | 0.00 | 83 | 1013.9 |
| 20260904190028 | 75 | 314 | 4.0 | 11.0 | 0.00 | 0.00 | 0.00 | 83 | 1013.9 |
| 20260904185526 | 75 | 299 | 5.0 | 11.0 | 0.00 | 0.00 | 0.00 | 83 | 1014.0 |
| 20260904185025 | 75 | 296 | 5.0 | 12.0 | 0.00 | 0.00 | 0.00 | 83 | 1014.1 |
| 20260904184523 | 74 | 287 | 5.0 | 12.0 | 0.00 | 0.00 | 0.00 | 83 | 1014.2 |
| 20260904184023 | 74 | 311 | 7.0 | 11.0 | 0.00 | 0.00 | 0.00 | 83 | 1014.2 |
| 20260904183523 | 74 | 271 | 4.0 | 11.0 | 0.00 | 0.00 | 0.00 | 83 | 1014.2 |
| 20260904183022 | 74 | 300 | 7.0 | 11.0 | 0.00 | 0.00 | 0.00 | 83 | 1014.3 |
| 20260904182521 | 74 | 285 | 5.0 | 13.0 | 0.00 | 0.00 | 0.00 | 83 | 1014.3 |
| 20260904182020 | 74 | 306 | 7.0 | 13.0 | 0.00 | 0.00 | 0.00 | 82 | 1014.3 |
| 20260904181620 | 74 | 302 | 5.0 | 11.0 | 0.00 | 0.00 | 0.00 | 82 | 1014.2 |
| 20260904181036 | 74 | 290 | 4.0 | 10.0 | 0.00 | 0.00 | 0.00 | 82 | 1014.3 |
| 20260904180537 | 74 | 297 | 5.0 | 9.0 | 0.00 | 0.00 | 0.00 | 82 | 1014.2 |
| 20260904180039 | 74 | 326 | 0.0 | 10.0 | 0.00 | 0.00 | 0.00 | 82 | 1014.3 |
| 20260904175532 | 73 | 298 | 5.0 | 10.0 | 0.00 | 0.00 | 0.00 | 82 | 1014.3 |
| 20260904175033 | 73 | 314 | 4.0 | 11.0 | 0.00 | 0.00 | 0.00 | 82 | 1014.3 |
| 20260904174529 | 73 | 306 | 5.0 | 11.0 | 0.00 | 0.00 | 0.00 | 82 | 1014.2 |
| 20260904174029 | 73 | 272 | 2.0 | 7.0 | 0.00 | 0.00 | 0.00 | 82 | 1014.2 |
| 20260904173527 | 72 | 2 | 1.0 | 8.0 | 0.00 | 0.00 | 0.00 | 81 | 1014.2 |
| 20260904173035 | 72 | 304 | 4.0 | 8.0 | 0.00 | 0.00 | 0.00 | 81 | 1014.2 |
| 20260904172526 | 72 | 275 | 3.0 | 8.0 | 0.00 | 0.00 | 0.00 | 81 | 1014.2 |
| 20260904172025 | 72 | 314 | 1.0 | 6.0 | 0.00 | 0.00 | 0.00 | 81 | 1014.2 |
| 20260904171532 | 72 | 298 | 0.0 | 4.0 | 0.00 | 0.00 | 0.00 | 81 | 1014.2 |
| 20260904171022 | 71 | 303 | 0.0 | 6.0 | 0.00 | 0.00 | 0.00 | 81 | 1014.3 |
| 20260904170525 | 71 | 285 | 3.0 | 7.0 | 0.00 | 0.00 | 0.00 | 81 | 1014.2 |
| 20260904170021 | 71 | 298 | 3.0 | 9.0 | 0.00 | 0.00 | 0.00 | 81 | 1014.3 |
| 20260904165520 | 70 | 307 | 4.0 | 7.0 | 0.00 | 0.00 | 0.00 | 81 | 1014.2 |
| 20260904165019 | 70 | 344 | 0.0 | 6.0 | 0.00 | 0.00 | 0.00 | 81 | 1014.1 |
| 20260904164518 | 69 | 327 | 1.0 | 6.0 | 0.00 | 0.00 | 0.00 | 81 | 1014.2 |
| 20260904164020 | 69 | 328 | 1.0 | 7.0 | 0.00 | 0.00 | 0.00 | 81 | 1014.1 |
| 20260904163515 | 69 | 327 | 2.0 | 7.0 | 0.00 | 0.00 | 0.00 | 80 | 1014.1 |
| 20260904163014 | 69 | 18 | 0.0 | 4.0 | 0.00 | 0.00 | 0.00 | 81 | 1014.0 |
| 20260904162513 | 68 | 339 | 0.0 | 4.0 | 0.00 | 0.00 | 0.00 | 81 | 1014.0 |
| 20260904162017 | 68 | 339 | 1.0 | 4.0 | 0.00 | 0.00 | 0.00 | 81 | 1014.0 |
| 20260904161512 | 68 | 340 | 0.0 | 5.0 | 0.00 | 0.00 | 0.00 | 80 | 1014.0 |